Weather History for KARB - October, 2011

Change the Weather History Date:

Tuesday, October 4, 2011

  Actual Average Record
Temperature  
Mean Temperature 56 °F -  
Max Temperature 72 °F 63 °F 82 °F (2005)
Min Temperature 41 °F 36 °F 26 °F (2008)
Degree Days  
Heating Degree Days 9    
Growing Degree Days 6 (Base 50)    
Moisture  
Dew Point 45 °F    
Average Humidity 73    
Maximum Humidity 97    
Minimum Humidity 36    
Precipitation  
Precipitation 0.00 in - - ()
Sea Level Pressure  
Sea Level Pressure 30.24 in    
Wind  
Wind Speed 2 mph (NNW)    
Max Wind Speed 9 mph    
Max Gust Speed -    
Visibility 9 miles    
Events      
Averages and records for this station are not official NWS values.
T = Trace of Precipitation, MM = Missing Value Source: NWS Daily Summary

Daily Weather History Graph

Daily Weather History Graph

Search for Another Location

Airport or City:

Trip Planner

Search our weather history database for the weather conditions in past years. The results will help you decide how hot, cold, wet, or windy it might be!

Date:

Astronomy

Oct. 04, 2011 Rise Set
Actual Time 7:34 AM EDT 7:11 PM EDT
Civil Twilight 7:07 AM EDT 7:39 PM EDT
Nautical Twilight 6:34 AM EDT 8:12 PM EDT
Astronomical Twilight 6:01 AM EDT 8:44 PM EDT
Moon 3:19 PM EDT (10/4) 12:09 AM EDT (10/4)
Length of Visible Light 12h 32m
Length of Day
11h 36m
First Quarter, 56% of the Moon is Illuminated
Oct 4
First Quarter
Oct 11
Full
Oct 19
Last Quarter
Oct 26
New
Nov 2
First Quarter

Hourly Weather History & Observations

Time (EDT) Temp. Dew Point Humidity Pressure Visibility Wind Dir Wind Speed Gust Speed Precip Events Conditions
12:53 AM 55.9 °F 51.1 °F 84% 30.20 in 10.0 mi NE 3.5 mph - N/A   Mostly Cloudy
1:00 AM 55.4 °F 48.2 °F 77% 30.20 in 10.0 mi NE 3.5 mph - N/A   Scattered Clouds
1:53 AM 48.0 °F 45.0 °F 89% 30.21 in 10.0 mi Calm Calm - N/A   Clear
2:53 AM 46.9 °F 45.0 °F 93% 30.22 in 10.0 mi Calm Calm - N/A   Clear
3:53 AM 45.0 °F 43.0 °F 93% 30.22 in 10.0 mi Calm Calm - N/A   Clear
4:53 AM 43.0 °F 42.1 °F 97% 30.23 in 10.0 mi Calm Calm - N/A   Clear
5:53 AM 41.0 °F 39.9 °F 96% 30.24 in 10.0 mi Calm Calm - N/A   Clear
7:53 AM 46.9 °F 42.1 °F 83% 30.26 in 10.0 mi Calm Calm - N/A   Clear
8:53 AM 53.1 °F 43.0 °F 69% 30.27 in 10.0 mi Calm Calm - N/A   Clear
10:53 AM 62.1 °F 44.1 °F 52% 30.29 in 10.0 mi NNW 6.9 mph - N/A   Clear
12:53 PM 68.0 °F 43.0 °F 40% 30.29 in 10.0 mi WNW 8.1 mph - N/A   Clear
1:53 PM 69.1 °F 45.0 °F 42% 30.27 in 10.0 mi NW 9.2 mph - N/A   Clear
2:53 PM 70.0 °F 44.1 °F 39% 30.25 in 10.0 mi Calm Calm - N/A   Clear
3:53 PM 71.1 °F 44.1 °F 38% 30.25 in 5.0 mi WNW 6.9 mph - N/A   Haze
4:53 PM 71.1 °F 43.0 °F 36% 30.24 in 4.0 mi West 5.8 mph - N/A   Haze
6:45 PM 64.4 °F 48.2 °F 56% 30.23 in 10.0 mi North - - N/A   Clear
6:53 PM 61.0 °F 52.0 °F 72% 30.24 in 10.0 mi Calm Calm - N/A   Clear
8:53 PM 50.0 °F 48.0 °F 93% 30.25 in 3.0 mi Calm Calm - N/A   Clear
9:53 PM 48.9 °F 46.9 °F 93% 30.25 in 8.0 mi Calm Calm - N/A   Clear
10:53 PM 46.9 °F 46.0 °F 97% 30.25 in 5.0 mi Calm Calm - N/A   Clear
11:53 PM 46.0 °F 45.0 °F 96% 30.25 in 5.0 mi Calm Calm - N/A   Clear